Crookston, MN

1:57 PM CDT on October 01, 2016 (GMT -0500)
Crookston Municipal-Kirkwood

Weather History for KCKN - September, 2013

Change the Weather History Date:

Wednesday, September 11, 2013

  Actual Average Record
Temperature  
Mean Temperature 66 °F -  
Max Temperature 78 °F 70 °F 87 °F (2011)
Min Temperature 51 °F 48 °F 37 °F (2015)
Growing Degree Days 16 (Base 50)    
Moisture  
Dew Point 52 °F    
Average Humidity 67    
Maximum Humidity 100    
Minimum Humidity 30    
Precipitation  
Precipitation 0.00 in - - ()
Sea Level Pressure  
Sea Level Pressure 30.03 in    
Wind  
Wind Speed 8 mph (NW)    
Max Wind Speed 28 mph    
Max Gust Speed 33 mph    
Visibility 10 miles    
Events      
Averages and records for this station are not official NWS values.
T = Trace of Precipitation, MM = Missing Value Source: NWS Daily Summary

Daily Weather History Graph

Daily Weather History Graph

Search for Another Location

Airport or City:

Trip Planner

Search our weather history database for the weather conditions in past years. The results will help you decide how hot, cold, wet, or windy it might be!

Date:

Astronomy

Sep. 11, 2013 Rise Set
Actual Time 6:58 AM CDT 7:46 PM CDT
Civil Twilight 6:27 AM CDT 8:17 PM CDT
Nautical Twilight 5:49 AM CDT 8:54 PM CDT
Astronomical Twilight 5:10 AM CDT 9:34 PM CDT
Moon 1:56 PM CDT (9/11) 11:14 PM CDT (9/11)
Length of Visible Light 13h 50m
Length of Day
12h 47m
Waxing Crescent, 39% of the Moon is Illuminated
Sep 11
Waxing Crescent
Sep 12
First Quarter
Sep 19
Full
Sep 26
Last Quarter
Oct 4
New

Hourly Weather History & Observations

Time (CDT) Temp. Dew Point Humidity Pressure Visibility Wind Dir Wind Speed Gust Speed Precip Events Conditions
12:15 AM 62.6 °F 59.0 °F 88% 29.89 in 10.0 mi SW 5.8 mph - N/A   Clear
12:34 AM 62.6 °F 59.0 °F 88% 29.89 in 10.0 mi WSW 8.1 mph - N/A   Clear
12:55 AM 60.8 °F 57.2 °F 88% 29.90 in 10.0 mi WSW 4.6 mph - N/A   Clear
1:14 AM 60.8 °F 57.2 °F 88% 29.91 in 10.0 mi West 5.8 mph - N/A   Clear
1:35 AM 60.8 °F 57.2 °F 88% 29.91 in 10.0 mi West 3.5 mph - N/A   Clear
1:54 AM 60.8 °F 57.2 °F 88% 29.92 in 10.0 mi WNW 4.6 mph - N/A   Clear
2:14 AM 60.8 °F 57.2 °F 88% 29.92 in 10.0 mi WNW 4.6 mph - N/A   Scattered Clouds
2:35 AM 60.8 °F 57.2 °F 88% 29.93 in 10.0 mi WNW 5.8 mph - N/A   Scattered Clouds
2:54 AM 60.8 °F 57.2 °F 88% 29.94 in 10.0 mi NW 6.9 mph - N/A   Scattered Clouds
3:14 AM 60.8 °F 57.2 °F 88% 29.94 in 10.0 mi NW 5.8 mph - N/A   Clear
3:35 AM 59.0 °F 57.2 °F 94% 29.95 in 10.0 mi NW 4.6 mph - N/A   Clear
3:54 AM 60.8 °F 57.2 °F 88% 29.95 in 10.0 mi NNW 5.8 mph - N/A   Scattered Clouds
4:14 AM 60.8 °F 57.2 °F 88% 29.95 in 10.0 mi NNW 5.8 mph - N/A   Scattered Clouds
4:35 AM 59.0 °F 57.2 °F 94% 29.96 in 10.0 mi NNW 6.9 mph - N/A   Clear
4:54 AM 59.0 °F 57.2 °F 94% 29.97 in 10.0 mi NW 6.9 mph - N/A   Clear
5:14 AM 57.2 °F 55.4 °F 94% 29.97 in 10.0 mi NW 3.5 mph - N/A   Clear
5:35 AM 55.4 °F 55.4 °F 100% 29.97 in 10.0 mi Calm Calm - N/A   Clear
5:54 AM 55.4 °F 55.4 °F 100% 29.98 in 10.0 mi Calm Calm - N/A   Clear
6:14 AM 55.4 °F 53.6 °F 94% 29.99 in 7.0 mi NW 3.5 mph - N/A   Clear
6:35 AM 55.4 °F 53.6 °F 94% 29.99 in 10.0 mi Calm Calm - N/A   Clear
6:54 AM 53.6 °F 53.6 °F 100% 30.00 in 10.0 mi WNW 3.5 mph - N/A   Clear
7:14 AM 53.6 °F 53.6 °F 100% 30.01 in 7.0 mi West 4.6 mph - N/A   Clear
7:35 AM 55.4 °F 53.6 °F 94% 30.02 in 10.0 mi West 3.5 mph - N/A   Clear
7:54 AM 55.4 °F 53.6 °F 94% 30.02 in 10.0 mi West 3.5 mph - N/A   Clear
8:15 AM 57.2 °F 55.4 °F 94% 30.02 in 10.0 mi Calm Calm - N/A   Clear
8:34 AM 57.2 °F 57.2 °F 100% 30.03 in 10.0 mi Calm Calm - N/A   Clear
8:54 AM 60.8 °F 57.2 °F 88% 30.02 in 10.0 mi WNW 4.6 mph - N/A   Clear
9:15 AM 60.8 °F 57.2 °F 88% 30.02 in 10.0 mi WNW 4.6 mph - N/A   Clear
9:34 AM 62.6 °F 57.2 °F 82% 30.03 in 10.0 mi WNW 4.6 mph - N/A   Clear
9:54 AM 64.4 °F 57.2 °F 77% 30.03 in 10.0 mi West 4.6 mph - N/A   Clear
10:15 AM 66.2 °F 59.0 °F 78% 30.03 in 10.0 mi West 3.5 mph - N/A   Clear
10:34 AM 68.0 °F 59.0 °F 73% 30.03 in 10.0 mi WSW 4.6 mph - N/A   Clear
10:55 AM 69.8 °F 59.0 °F 68% 30.02 in 10.0 mi SW 4.6 mph - N/A   Clear
11:14 AM 71.6 °F 60.8 °F 69% 30.02 in 10.0 mi SW 9.2 mph - N/A   Clear
11:34 AM 73.4 °F 59.0 °F 61% 30.01 in 10.0 mi SW 9.2 mph - N/A   Clear
11:55 AM 75.2 °F 57.2 °F 53% 30.01 in 10.0 mi WSW 10.4 mph - N/A   Clear
12:14 PM 75.2 °F 57.2 °F 53% 30.01 in 10.0 mi West 10.4 mph - N/A   Clear
12:34 PM 77.0 °F 55.4 °F 47% 30.01 in 10.0 mi West 13.8 mph 19.6 mph N/A   Clear
12:55 PM 78.8 °F 53.6 °F 42% 30.01 in 10.0 mi WNW 15.0 mph 24.2 mph N/A   Clear
1:14 PM 78.8 °F 51.8 °F 39% 30.01 in 10.0 mi NW 21.9 mph 27.6 mph N/A   Clear
1:34 PM 78.8 °F 48.2 °F 34% 30.01 in 10.0 mi NW 23.0 mph - N/A   Clear
1:55 PM 78.8 °F 46.4 °F 32% 30.01 in 10.0 mi WNW 21.9 mph 28.8 mph N/A   Clear
2:14 PM 78.8 °F 44.6 °F 30% 30.01 in 10.0 mi WNW 27.6 mph - N/A   Clear
2:34 PM 78.8 °F 46.4 °F 32% 30.02 in 10.0 mi WNW 23.0 mph 33.4 mph N/A   Clear
2:55 PM 77.0 °F 48.2 °F 36% 30.02 in 10.0 mi NW 25.3 mph 29.9 mph N/A   Clear
3:14 PM 75.2 °F 48.2 °F 38% 30.03 in 10.0 mi NW 21.9 mph 32.2 mph N/A   Clear
3:34 PM 75.2 °F 46.4 °F 36% 30.04 in 10.0 mi NNW 18.4 mph 31.1 mph N/A   Scattered Clouds
3:54 PM 77.0 °F 46.4 °F 34% 30.04 in 10.0 mi NW 23.0 mph 32.2 mph N/A   Scattered Clouds
4:14 PM 75.2 °F 46.4 °F 36% 30.05 in 10.0 mi NNW 19.6 mph 28.8 mph N/A   Scattered Clouds
4:35 PM 75.2 °F 44.6 °F 34% 30.05 in 10.0 mi NNW 19.6 mph 29.9 mph N/A   Scattered Clouds
4:54 PM 75.2 °F 44.6 °F 34% 30.05 in 10.0 mi North 20.7 mph 27.6 mph N/A   Scattered Clouds
5:14 PM 75.2 °F 42.8 °F 31% 30.06 in 10.0 mi NNW 19.6 mph 31.1 mph N/A   Clear
5:35 PM 75.2 °F 42.8 °F 31% 30.07 in 10.0 mi NNW 17.3 mph 25.3 mph N/A   Clear
5:54 PM 75.2 °F 44.6 °F 34% 30.08 in 10.0 mi North 19.6 mph 27.6 mph N/A   Clear
6:14 PM 73.4 °F 44.6 °F 36% 30.08 in 10.0 mi North 20.7 mph 29.9 mph N/A   Clear
6:35 PM 73.4 °F 44.6 °F 36% 30.08 in 10.0 mi North 18.4 mph - N/A   Clear
6:54 PM 71.6 °F 44.6 °F 38% 30.09 in 10.0 mi NNW 13.8 mph - N/A   Clear
7:14 PM 71.6 °F 46.4 °F 41% 30.09 in 10.0 mi North 11.5 mph - N/A   Clear
7:35 PM 69.8 °F 46.4 °F 43% 30.10 in 10.0 mi North 10.4 mph - N/A   Clear
7:54 PM 66.2 °F 46.4 °F 49% 30.11 in 10.0 mi North 8.1 mph - N/A   Clear
8:14 PM 64.4 °F 46.4 °F 52% 30.12 in 10.0 mi North 6.9 mph - N/A   Clear
8:34 PM 64.4 °F 46.4 °F 52% 30.13 in 10.0 mi North 4.6 mph - N/A   Clear
8:54 PM 62.6 °F 48.2 °F 59% 30.14 in 10.0 mi North 5.8 mph - N/A   Clear
9:15 PM 62.6 °F 48.2 °F 59% 30.14 in 10.0 mi North 4.6 mph - N/A   Clear
9:34 PM 62.6 °F 48.2 °F 59% 30.14 in 10.0 mi North 4.6 mph - N/A   Clear
9:54 PM 60.8 °F 48.2 °F 63% 30.15 in 10.0 mi North 4.6 mph - N/A   Clear
10:15 PM 57.2 °F 48.2 °F 72% 30.15 in 10.0 mi North 4.6 mph - N/A   Clear
10:34 PM 57.2 °F 48.2 °F 72% 30.16 in 10.0 mi North 4.6 mph - N/A   Clear
10:54 PM 57.2 °F 48.2 °F 72% 30.17 in 10.0 mi North 4.6 mph - N/A   Clear
11:15 PM 57.2 °F 48.2 °F 72% 30.17 in 10.0 mi North 4.6 mph - N/A   Clear
11:34 PM 55.4 °F 48.2 °F 77% 30.17 in 10.0 mi North 5.8 mph - N/A   Clear
11:54 PM 51.8 °F 48.2 °F 88% 30.18 in 10.0 mi Calm Calm - N/A   Clear